contact:dominique.lefevre@mio.osupytheas.fr, maurice.libes@osupytheas.fr, didier.mallarino@osupytheas.fr
Project:EMSO http://www.emso-fr.org/EMSO-France
Depth: 2436.0 m
Title:EMSO Ligure Ouest : Data MII capteur AQUADOPP
Date,Latitude,Longitude,X_East,Y_North,Z_Up,Amplitude_X,Amplitude_Y,Amplitude_Z,Batterie,SoundSpeed,Heading,Pitch,Roll,Pressure,TIS,Speed,Direction
, degrees North, degrees East, m.s-1, m.s-1,m.s-1, 1, 1, 1, Volt, m.s-1, degree, degree, degree, dbar, degree_C, m.s-1, degree
2022-03-22T15:40:03,42.805,6.029,-0.026,0.024,0.026,102.0,102.0,101.0,13.4,1505.2,329.0,-0.8,1.8,2470.535,13.29,0.035,312.7
2022-03-22T15:43:03,42.805,6.029,-0.019,0.014,0.028,102.0,101.0,100.0,13.4,1505.2,328.4,-0.8,1.8,2470.547,13.29,0.023,306.4
2022-03-22T15:46:03,42.805,6.029,-0.024,0.008,0.016,102.0,102.0,101.0,13.4,1505.2,327.7,-0.7,1.8,2470.547,13.29,0.025,288.4
2022-03-22T15:49:03,42.805,6.029,-0.028,-0.013,-0.008,102.0,102.0,101.0,13.4,1505.2,325.0,-0.8,1.8,2470.548,13.29,0.03,245.1
2022-03-22T15:52:03,42.805,6.029,-0.033,0.009,0.013,102.0,101.0,101.0,13.4,1505.2,328.9,-0.7,1.9,2470.53,13.29,0.034,285.3
2022-03-22T15:55:03,42.805,6.029,-0.022,0.013,0.019,101.0,102.0,101.0,13.3,1505.2,328.9,-0.8,1.8,2470.517,13.29,0.025,300.6
2022-03-22T15:58:03,42.805,6.029,-0.015,0.0,0.01,101.0,102.0,101.0,13.4,1505.2,328.4,-0.8,1.8,2470.516,13.29,0.015,270.0
2022-03-22T16:04:03,42.805,6.029,0.0,0.0,0.011,101.0,102.0,101.0,13.4,1505.2,332.5,-0.7,1.8,2470.595,13.28,0.0,0.0
2022-03-22T16:07:03,42.805,6.029,-0.036,0.012,0.007,102.0,101.0,102.0,13.3,1505.2,328.6,-0.8,1.8,2470.566,13.28,0.037,288.4
2022-03-22T16:10:03,42.805,6.029,-0.013,0.014,0.04,101.0,103.0,101.0,13.3,1505.2,329.9,-0.7,1.8,2470.59,13.29,0.019,317.1
2022-03-22T16:13:03,42.805,6.029,-0.014,0.013,-0.005,102.0,103.0,102.0,13.4,1505.2,328.0,-0.7,1.8,2470.58,13.29,0.019,312.9
2022-03-22T16:16:03,42.805,6.029,-0.012,-0.006,-0.028,99.0,102.0,101.0,13.3,1505.2,323.5,-0.8,1.8,2470.585,13.29,0.013,243.4
2022-03-22T16:19:03,42.805,6.029,-0.01,0.021,0.017,101.0,101.0,101.0,13.4,1505.2,325.2,-0.7,1.8,2470.535,13.29,0.023,334.5
2022-03-22T16:22:03,42.805,6.029,-0.023,0.027,0.019,101.0,102.0,101.0,13.4,1505.2,327.8,-0.8,1.8,2470.549,13.29,0.035,319.6
2022-03-22T16:25:03,42.805,6.029,-0.029,0.024,0.016,102.0,102.0,100.0,13.4,1505.2,331.0,-0.8,1.8,2470.582,13.29,0.037,309.6
2022-03-22T16:28:03,42.805,6.029,0.001,0.008,0.021,101.0,102.0,101.0,13.4,1505.2,331.3,-0.8,1.8,2470.561,13.29,0.008,7.1
2022-03-22T16:31:03,42.805,6.029,-0.036,0.015,-0.008,102.0,102.0,102.0,13.4,1505.2,331.9,-0.7,1.8,2470.583,13.29,0.039,292.6
2022-03-22T16:34:03,42.805,6.029,-0.015,0.017,0.017,101.0,102.0,101.0,13.4,1505.2,328.6,-0.8,1.8,2470.525,13.29,0.022,318.6
2022-03-22T16:37:03,42.805,6.029,-0.02,0.024,0.035,102.0,102.0,100.0,13.4,1505.2,327.9,-0.7,1.8,2470.554,13.29,0.031,320.2
2022-03-22T16:40:03,42.805,6.029,-0.014,-0.007,0.017,101.0,102.0,101.0,13.4,1505.2,322.5,-0.7,1.8,2470.588,13.29,0.015,243.4
2022-03-22T16:43:03,42.805,6.029,-0.005,0.002,0.009,102.0,102.0,101.0,13.4,1505.2,325.3,-0.8,1.8,2470.538,13.29,0.005,291.8
2022-03-22T16:46:03,42.805,6.029,-0.004,0.016,0.036,101.0,102.0,101.0,13.4,1505.2,327.8,-0.7,1.8,2470.567,13.29,0.016,346.0
2022-03-22T16:49:03,42.805,6.029,-0.011,-0.001,0.019,103.0,101.0,101.0,13.4,1505.2,323.4,-0.8,1.8,2470.531,13.29,0.011,264.8
2022-03-22T16:52:03,42.805,6.029,-0.013,0.004,0.001,101.0,103.0,101.0,13.4,1505.2,332.1,-0.8,1.8,2470.557,13.29,0.013,287.1
2022-03-22T16:55:03,42.805,6.029,-0.036,0.01,0.018,103.0,100.0,101.0,13.3,1505.2,329.2,-0.8,1.8,2470.519,13.29,0.037,285.5
2022-03-22T16:58:03,42.805,6.029,-0.022,0.006,0.014,101.0,102.0,101.0,13.4,1505.2,323.6,-0.7,1.8,2470.528,13.29,0.022,285.3
2022-03-22T17:04:03,42.805,6.029,-0.008,-0.002,-0.018,102.0,102.0,101.0,13.3,1505.2,331.2,-0.7,1.8,2470.618,13.28,0.008,256.0
2022-03-22T17:07:03,42.805,6.029,0.008,0.014,-0.01,104.0,102.0,101.0,13.3,1505.2,331.6,-0.8,1.8,2470.591,13.28,0.016,29.7
2022-03-22T17:10:03,42.805,6.029,-0.025,0.029,0.029,101.0,101.0,100.0,13.4,1505.2,328.0,-0.7,1.8,2470.594,13.29,0.038,319.2
2022-03-22T17:13:03,42.805,6.029,-0.025,0.026,0.002,103.0,101.0,101.0,13.3,1505.2,328.3,-0.8,1.8,2470.546,13.29,0.036,316.1
2022-03-22T17:16:03,42.805,6.029,-0.024,0.014,0.0,103.0,101.0,101.0,13.4,1505.2,326.3,-0.7,1.8,2470.563,13.29,0.027,300.3
2022-03-22T17:19:03,42.805,6.029,-0.025,0.004,-0.01,101.0,103.0,101.0,13.4,1505.2,327.7,-0.7,1.8,2470.556,13.29,0.025,279.1
2022-03-22T17:22:03,42.805,6.029,0.004,0.009,0.035,100.0,103.0,100.0,13.3,1505.2,329.8,-0.7,1.9,2470.615,13.29,0.009,24.0
2022-03-22T17:25:03,42.805,6.029,-0.026,0.009,0.002,101.0,101.0,101.0,13.3,1505.2,325.8,-0.7,1.8,2470.558,13.29,0.027,289.1
2022-03-22T17:28:03,42.805,6.029,0.009,0.001,0.012,101.0,103.0,101.0,13.4,1505.2,322.9,-0.7,1.8,2470.56,13.29,0.009,83.7
2022-03-22T17:31:03,42.805,6.029,0.003,0.002,0.011,103.0,102.0,101.0,13.4,1505.2,326.2,-0.7,1.8,2470.558,13.29,0.003,56.3
2022-03-22T17:34:03,42.805,6.029,-0.036,0.008,0.003,101.0,102.0,101.0,13.3,1505.2,332.2,-0.7,1.8,2470.588,13.29,0.036,282.5
2022-03-22T17:37:03,42.805,6.029,-0.018,-0.002,-0.018,103.0,102.0,101.0,13.4,1505.2,330.7,-0.8,1.8,2470.543,13.29,0.018,263.7
2022-03-22T17:40:03,42.805,6.029,-0.018,0.018,0.003,100.0,102.0,101.0,13.4,1505.2,328.2,-0.8,1.8,2470.569,13.29,0.025,315.0
2022-03-22T17:43:03,42.805,6.029,-0.028,0.01,0.01,102.0,102.0,101.0,13.4,1505.2,327.3,-0.7,1.9,2470.532,13.29,0.029,289.6
2022-03-22T17:46:03,42.805,6.029,-0.018,0.007,-0.007,101.0,102.0,101.0,13.4,1505.2,328.2,-0.8,1.8,2470.598,13.29,0.019,291.2
2022-03-22T17:49:03,42.805,6.029,0.006,-0.001,0.019,102.0,103.0,100.0,13.4,1505.2,325.7,-0.7,1.8,2470.582,13.29,0.006,99.5
2022-03-22T17:52:03,42.805,6.029,-0.01,0.025,0.009,102.0,103.0,101.0,13.4,1505.2,324.7,-0.8,1.8,2470.545,13.29,0.026,338.2
2022-03-22T17:55:03,42.805,6.029,-0.032,0.006,0.0,101.0,102.0,101.0,13.4,1505.2,327.8,-0.8,1.8,2470.551,13.29,0.032,280.6
2022-03-22T17:58:03,42.805,6.029,-0.015,0.003,0.012,101.0,101.0,102.0,13.4,1505.2,322.9,-0.8,1.9,2470.595,13.29,0.015,281.3
2022-03-22T18:04:03,42.805,6.029,-0.028,0.014,0.009,102.0,101.0,101.0,13.4,1505.2,329.5,-0.7,1.8,2470.594,13.28,0.031,296.6
2022-03-22T18:07:03,42.805,6.029,-0.028,-0.002,-0.017,102.0,101.0,101.0,13.4,1505.2,331.6,-0.7,1.8,2470.585,13.28,0.028,265.9
2022-03-22T18:10:03,42.805,6.029,0.016,0.02,0.042,102.0,101.0,100.0,13.4,1505.2,331.6,-0.8,1.9,2470.617,13.28,0.025,38.7
2022-03-22T18:13:03,42.805,6.029,-0.015,0.016,-0.019,103.0,101.0,101.0,13.4,1505.2,327.4,-0.8,1.8,2470.582,13.29,0.021,316.9
2022-03-22T18:16:03,42.805,6.029,-0.016,0.01,0.023,102.0,101.0,101.0,13.4,1505.2,331.0,-0.8,1.8,2470.603,13.29,0.018,302.0
2022-03-22T18:19:03,42.805,6.029,-0.048,0.015,-0.004,101.0,104.0,99.0,13.4,1505.2,326.3,-0.8,1.8,2470.65,13.29,0.05,287.4
2022-03-22T18:22:03,42.805,6.029,-0.011,0.007,0.014,101.0,102.0,101.0,13.4,1505.2,326.5,-0.7,1.8,2470.615,13.29,0.013,302.5
2022-03-22T18:25:03,42.805,6.029,-0.039,0.033,0.024,100.0,102.0,101.0,13.4,1505.2,326.7,-0.8,1.8,2470.619,13.29,0.051,310.2
2022-03-22T18:28:03,42.805,6.029,-0.02,0.014,0.011,101.0,102.0,101.0,13.4,1505.2,325.4,-0.8,1.8,2470.609,13.29,0.024,305.0
2022-03-22T18:31:03,42.805,6.029,-0.011,0.004,-0.006,102.0,101.0,102.0,13.4,1505.2,326.5,-0.8,1.8,2470.627,13.29,0.011,290.0
2022-03-22T18:34:03,42.805,6.029,-0.022,0.023,0.009,101.0,102.0,101.0,13.3,1505.2,327.7,-0.8,1.8,2470.64,13.29,0.031,316.3
2022-03-22T18:37:03,42.805,6.029,-0.041,0.012,-0.025,101.0,102.0,101.0,13.4,1505.2,329.2,-0.8,1.8,2470.608,13.29,0.042,286.3
2022-03-22T18:40:03,42.805,6.029,-0.011,0.005,0.022,101.0,102.0,101.0,13.4,1505.2,330.6,-0.8,1.8,2470.626,13.29,0.012,294.4
2022-03-22T18:43:03,42.805,6.029,-0.015,-0.009,0.004,102.0,102.0,101.0,13.3,1505.2,324.4,-0.8,1.8,2470.654,13.29,0.017,239.0
2022-03-22T18:46:03,42.805,6.029,-0.013,0.005,0.016,101.0,100.0,102.0,13.3,1505.2,324.2,-0.8,1.8,2470.58,13.29,0.013,291.0
2022-03-22T18:49:03,42.805,6.029,-0.029,0.018,0.01,101.0,103.0,100.0,13.4,1505.2,325.4,-0.7,1.8,2470.629,13.29,0.034,301.8
2022-03-22T18:52:03,42.805,6.029,-0.024,0.003,0.01,101.0,103.0,101.0,13.3,1505.2,329.4,-0.7,1.8,2470.659,13.29,0.024,277.1
2022-03-22T18:55:03,42.805,6.029,-0.033,0.008,0.025,100.0,101.0,101.0,13.4,1505.2,330.5,-0.8,1.8,2470.589,13.29,0.033,283.6
2022-03-22T18:58:03,42.805,6.029,-0.022,0.008,0.007,101.0,101.0,101.0,13.4,1505.2,326.5,-0.8,1.8,2470.631,13.29,0.023,290.0
2022-03-22T19:04:03,42.805,6.029,-0.014,0.015,0.002,101.0,102.0,100.0,13.4,1505.2,326.9,-0.8,1.8,2470.712,13.28,0.02,317.0
2022-03-22T19:07:03,42.805,6.029,-0.019,-0.007,0.004,101.0,101.0,101.0,13.4,1505.2,323.7,-0.7,1.9,2470.68,13.28,0.02,249.8
2022-03-22T19:10:03,42.805,6.029,-0.007,0.023,0.009,102.0,101.0,101.0,13.3,1505.2,332.2,-0.8,1.8,2470.682,13.28,0.024,343.1
2022-03-22T19:13:03,42.805,6.029,-0.021,-0.01,0.022,102.0,102.0,100.0,13.4,1505.2,329.2,-0.8,1.8,2470.661,13.29,0.023,244.5
2022-03-22T19:16:03,42.805,6.029,-0.043,0.014,-0.001,101.0,101.0,100.0,13.4,1505.2,327.2,-0.7,1.8,2470.667,13.29,0.045,288.0
2022-03-22T19:19:03,42.805,6.029,-0.022,0.002,0.009,102.0,102.0,100.0,13.3,1505.2,324.2,-0.8,1.8,2470.701,13.29,0.022,275.2
2022-03-22T19:22:03,42.805,6.029,-0.01,0.017,0.008,101.0,102.0,101.0,13.3,1505.2,323.2,-0.7,1.8,2470.671,13.29,0.019,329.5
2022-03-22T19:25:03,42.805,6.029,-0.027,0.025,0.028,104.0,102.0,101.0,13.3,1505.2,323.2,-0.8,1.8,2470.646,13.29,0.036,312.8
2022-03-22T19:28:03,42.805,6.029,-0.031,0.004,0.023,101.0,102.0,101.0,13.3,1505.2,329.0,-0.8,1.8,2470.671,13.29,0.031,277.3
2022-03-22T19:31:03,42.805,6.029,-0.033,0.021,0.0,101.0,100.0,101.0,13.4,1505.2,327.7,-0.8,1.8,2470.677,13.29,0.039,302.5
2022-03-22T19:34:03,42.805,6.029,0.003,0.007,0.008,101.0,101.0,101.0,13.4,1505.2,328.2,-0.7,1.8,2470.669,13.29,0.007,23.2
2022-03-22T19:37:03,42.805,6.029,-0.015,0.019,0.026,103.0,102.0,101.0,13.4,1505.2,323.9,-0.7,1.8,2470.671,13.29,0.024,321.7
2022-03-22T19:40:03,42.805,6.029,-0.011,0.027,0.006,101.0,102.0,101.0,13.4,1505.2,330.5,-0.7,1.8,2470.68,13.29,0.029,337.8
2022-03-22T19:43:03,42.805,6.029,-0.014,-0.004,0.015,101.0,101.0,101.0,13.4,1505.2,325.7,-0.8,1.8,2470.679,13.29,0.014,254.1
2022-03-22T19:46:03,42.805,6.029,-0.046,-0.012,-0.011,102.0,102.0,100.0,13.4,1505.2,325.7,-0.8,1.8,2470.669,13.29,0.047,255.4
2022-03-22T19:49:03,42.805,6.029,-0.006,0.013,0.005,101.0,101.0,101.0,13.4,1505.2,323.5,-0.7,1.9,2470.695,13.29,0.014,335.2
2022-03-22T19:52:03,42.805,6.029,-0.049,0.012,-0.001,102.0,101.0,100.0,13.4,1505.2,332.1,-0.7,1.8,2470.662,13.29,0.05,283.8
2022-03-22T19:55:03,42.805,6.029,-0.014,0.009,0.0,101.0,101.0,101.0,13.3,1505.2,328.9,-0.8,1.8,2470.687,13.29,0.016,302.7
2022-03-22T19:58:03,42.805,6.029,-0.034,0.0,-0.014,103.0,101.0,100.0,13.3,1505.2,325.9,-0.7,1.8,2470.696,13.29,0.034,270.0
2022-03-22T20:04:03,42.805,6.029,-0.017,0.013,0.021,101.0,101.0,100.0,13.4,1505.2,326.6,-0.8,1.8,2470.723,13.28,0.021,307.4
2022-03-22T20:07:03,42.805,6.029,-0.03,0.024,0.033,100.0,101.0,100.0,13.4,1505.2,322.3,-0.8,1.8,2470.717,13.28,0.038,308.7
2022-03-22T20:10:03,42.805,6.029,-0.044,0.014,0.031,101.0,101.0,100.0,13.4,1505.2,323.8,-0.8,1.8,2470.698,13.28,0.046,287.6
2022-03-22T20:13:03,42.805,6.029,-0.022,0.022,0.017,101.0,102.0,101.0,13.3,1505.2,330.5,-0.8,1.8,2470.741,13.28,0.031,315.0
2022-03-22T20:16:03,42.805,6.029,-0.016,0.015,0.0,101.0,102.0,100.0,13.4,1505.2,327.0,-0.8,1.8,2470.697,13.28,0.021,313.1
2022-03-22T20:19:03,42.805,6.029,0.003,0.01,0.012,100.0,102.0,101.0,13.4,1505.2,324.6,-0.8,1.8,2470.688,13.29,0.01,16.7
2022-03-22T20:22:03,42.805,6.029,-0.003,0.009,0.003,101.0,101.0,101.0,13.3,1505.2,331.7,-0.8,1.8,2470.711,13.29,0.009,341.6
2022-03-22T20:25:03,42.805,6.029,-0.03,0.014,-0.007,101.0,100.0,101.0,13.4,1505.2,326.1,-0.8,1.8,2470.714,13.29,0.033,295.0
2022-03-22T20:28:03,42.805,6.029,-0.018,0.02,0.009,101.0,103.0,101.0,13.4,1505.2,325.9,-0.8,1.8,2470.714,13.29,0.026,318.0
2022-03-22T20:31:03,42.805,6.029,-0.01,0.012,0.013,102.0,103.0,100.0,13.3,1505.2,323.3,-0.7,1.8,2470.711,13.29,0.015,320.2
2022-03-22T20:34:03,42.805,6.029,-0.024,0.026,0.022,101.0,102.0,101.0,13.4,1505.2,327.2,-0.8,1.8,2470.719,13.29,0.035,317.3
2022-03-22T20:37:03,42.805,6.029,-0.012,0.013,0.009,102.0,101.0,100.0,13.3,1505.2,331.5,-0.8,1.8,2470.709,13.29,0.017,317.3
2022-03-22T20:40:03,42.805,6.029,-0.035,0.035,0.023,101.0,102.0,100.0,13.4,1505.2,327.8,-0.8,1.8,2470.717,13.29,0.049,315.0
2022-03-22T20:43:03,42.805,6.029,-0.037,0.015,0.008,101.0,102.0,101.0,13.3,1505.2,327.9,-0.7,1.8,2470.697,13.29,0.039,292.1
2022-03-22T20:46:03,42.805,6.029,-0.001,0.013,0.027,101.0,102.0,100.0,13.4,1505.2,327.9,-0.7,1.9,2470.731,13.29,0.013,355.6
2022-03-22T20:49:03,42.805,6.029,-0.022,0.036,0.033,101.0,101.0,101.0,13.4,1505.2,327.3,-0.8,1.8,2470.724,13.29,0.042,328.6
2022-03-22T20:52:03,42.805,6.029,-0.025,0.02,0.02,101.0,102.0,101.0,13.3,1505.2,327.7,-0.8,1.8,2470.731,13.29,0.032,308.7
2022-03-22T20:55:03,42.805,6.029,-0.024,0.02,0.004,103.0,102.0,101.0,13.3,1505.2,325.2,-0.8,1.8,2470.697,13.29,0.031,309.8
2022-03-22T20:58:03,42.805,6.029,-0.019,0.026,0.031,100.0,103.0,100.0,13.4,1505.2,330.0,-0.8,1.8,2470.724,13.29,0.032,323.8
2022-03-22T21:04:03,42.805,6.029,-0.01,0.04,0.046,101.0,102.0,100.0,13.3,1505.2,332.7,-0.8,1.8,2470.779,13.28,0.041,346.0
2022-03-22T21:07:03,42.805,6.029,-0.015,0.012,0.031,102.0,103.0,101.0,13.4,1505.2,323.5,-0.8,1.8,2470.774,13.28,0.019,308.7
2022-03-22T21:10:03,42.805,6.029,-0.008,0.004,0.003,101.0,103.0,100.0,13.4,1505.2,331.5,-0.8,1.8,2470.765,13.28,0.008,296.6
2022-03-22T21:13:03,42.805,6.029,-0.016,0.036,0.034,102.0,102.0,101.0,13.4,1505.2,325.4,-0.8,1.9,2470.741,13.28,0.039,336.0
2022-03-22T21:16:03,42.805,6.029,-0.006,0.017,0.036,102.0,102.0,100.0,13.4,1505.2,326.3,-0.8,1.8,2470.709,13.29,0.018,340.6
2022-03-22T21:19:03,42.805,6.029,0.009,0.015,0.038,100.0,103.0,101.0,13.3,1505.2,323.6,-0.7,1.8,2470.775,13.29,0.017,31.0
2022-03-22T21:22:03,42.805,6.029,-0.019,0.015,0.043,101.0,102.0,101.0,13.4,1505.2,328.0,-0.8,1.8,2470.76,13.29,0.024,308.3
2022-03-22T21:25:03,42.805,6.029,0.022,0.013,0.023,101.0,102.0,100.0,13.3,1505.2,326.1,-0.8,1.8,2470.749,13.29,0.025,59.4
2022-03-22T21:28:03,42.805,6.029,-0.006,-0.005,0.009,105.0,102.0,101.0,13.3,1505.2,327.3,-0.8,1.8,2470.75,13.29,0.007,230.2
2022-03-22T21:31:03,42.805,6.029,0.0,0.025,0.04,102.0,101.0,102.0,13.3,1505.2,326.7,-0.7,1.8,2470.761,13.29,0.025,0.0
2022-03-22T21:34:03,42.805,6.029,-0.043,0.014,0.001,102.0,102.0,100.0,13.4,1505.2,328.7,-0.7,1.8,2470.736,13.29,0.045,288.0
2022-03-22T21:37:03,42.805,6.029,-0.023,0.028,0.019,102.0,101.0,101.0,13.3,1505.2,330.7,-0.8,1.8,2470.719,13.29,0.036,320.6
2022-03-22T21:40:03,42.805,6.029,-0.017,0.018,-0.001,102.0,102.0,101.0,13.4,1505.2,327.0,-0.7,1.8,2470.745,13.29,0.024,316.6
2022-03-22T21:43:03,42.805,6.029,0.014,0.024,0.043,101.0,103.0,103.0,13.4,1505.2,325.7,-0.8,1.9,2470.754,13.29,0.027,30.3
2022-03-22T21:46:03,42.805,6.029,-0.008,0.011,0.032,101.0,103.0,101.0,13.4,1505.2,323.0,-0.7,1.8,2470.764,13.29,0.013,324.0
2022-03-22T21:49:03,42.805,6.029,-0.01,0.021,0.029,102.0,103.0,101.0,13.4,1505.2,332.2,-0.8,1.8,2470.741,13.29,0.023,334.5
2022-03-22T21:52:03,42.805,6.029,0.001,0.012,0.004,103.0,102.0,101.0,13.3,1505.2,323.1,-0.8,1.8,2470.767,13.29,0.012,4.8
2022-03-22T21:55:03,42.805,6.029,-0.014,0.02,-0.01,102.0,103.0,101.0,13.4,1505.2,325.8,-0.7,1.8,2470.787,13.29,0.024,325.0
2022-03-22T21:58:03,42.805,6.029,0.011,0.031,0.06,102.0,101.0,101.0,13.4,1505.2,327.6,-0.8,1.8,2470.746,13.29,0.032,19.5
2022-03-22T22:04:03,42.805,6.029,-0.013,0.018,0.057,101.0,102.0,101.0,13.4,1505.2,325.0,-0.8,1.8,2470.805,13.28,0.022,324.2
2022-03-22T22:07:03,42.805,6.029,-0.013,0.002,0.009,102.0,103.0,101.0,13.4,1505.2,328.1,-0.7,1.8,2470.768,13.28,0.013,278.7
2022-03-22T22:10:03,42.805,6.029,0.0,0.0,0.021,102.0,101.0,100.0,13.4,1505.2,330.2,-0.8,1.8,2470.795,13.28,0.0,0.0
2022-03-22T22:13:03,42.805,6.029,-0.017,0.021,0.037,102.0,103.0,100.0,13.4,1505.2,328.6,-0.7,1.8,2470.771,13.28,0.027,321.0
2022-03-22T22:16:03,42.805,6.029,-0.013,0.028,0.042,101.0,102.0,100.0,13.3,1505.2,329.2,-0.8,1.8,2470.766,13.28,0.03,335.1
2022-03-22T22:19:03,42.805,6.029,-0.028,0.016,0.004,102.0,102.0,101.0,13.4,1505.2,323.1,-0.8,1.8,2470.795,13.28,0.032,299.7
2022-03-22T22:22:03,42.805,6.029,-0.004,0.032,0.032,102.0,102.0,100.0,13.4,1505.2,329.4,-0.7,1.8,2470.764,13.28,0.032,352.9
2022-03-22T22:25:03,42.805,6.029,-0.019,0.012,0.03,102.0,103.0,100.0,13.4,1505.2,323.6,-0.8,1.8,2470.743,13.28,0.022,302.3
2022-03-22T22:28:03,42.805,6.029,-0.006,0.002,0.024,101.0,102.0,100.0,13.4,1505.2,327.6,-0.7,1.8,2470.76,13.28,0.006,288.4
2022-03-22T22:31:03,42.805,6.029,-0.014,0.004,0.04,101.0,103.0,101.0,13.4,1505.2,325.1,-0.7,1.8,2470.79,13.29,0.014,285.9
2022-03-22T22:34:03,42.805,6.029,-0.014,0.025,0.005,103.0,101.0,101.0,13.3,1505.2,330.0,-0.8,1.9,2470.756,13.29,0.028,330.7
2022-03-22T22:37:03,42.805,6.029,-0.018,0.02,0.01,100.0,104.0,100.0,13.4,1505.2,330.0,-0.8,1.8,2470.743,13.29,0.026,318.0
2022-03-22T22:40:03,42.805,6.029,-0.027,0.022,0.012,101.0,103.0,101.0,13.4,1505.2,326.4,-0.7,1.8,2470.763,13.29,0.034,309.2
2022-03-22T22:43:03,42.805,6.029,-0.018,0.025,0.054,101.0,103.0,100.0,13.3,1505.2,326.4,-0.7,1.8,2470.702,13.29,0.03,324.2
2022-03-22T22:46:03,42.805,6.029,-0.035,0.017,0.032,102.0,101.0,101.0,13.3,1505.2,323.5,-0.7,1.8,2470.754,13.29,0.038,295.9
2022-03-22T22:49:03,42.805,6.029,0.012,-0.01,0.016,101.0,104.0,101.0,13.4,1505.2,324.9,-0.8,1.8,2470.766,13.29,0.015,129.8
2022-03-22T22:52:03,42.805,6.029,-0.015,0.016,0.038,101.0,102.0,100.0,13.3,1505.2,323.6,-0.8,1.8,2470.749,13.29,0.021,316.9
2022-03-22T22:55:03,42.805,6.029,-0.012,0.034,0.013,101.0,102.0,101.0,13.4,1505.2,329.9,-0.8,1.8,2470.754,13.29,0.036,340.6
2022-03-22T22:58:03,42.805,6.029,-0.021,0.019,0.037,100.0,102.0,100.0,13.4,1505.2,327.6,-0.8,1.9,2470.746,13.29,0.028,312.1
2022-03-22T23:04:03,42.805,6.029,-0.008,0.012,0.012,100.0,103.0,100.0,13.4,1505.2,326.2,-0.7,1.8,2470.795,13.28,0.014,326.3
2022-03-22T23:07:03,42.805,6.029,-0.023,0.019,0.036,101.0,103.0,101.0,13.4,1505.2,331.9,-0.8,1.8,2470.792,13.28,0.029,309.6
2022-03-22T23:10:03,42.805,6.029,0.009,-0.007,-0.001,102.0,101.0,101.0,13.4,1505.2,325.4,-0.8,1.8,2470.763,13.28,0.011,127.9
2022-03-22T23:13:03,42.805,6.029,0.015,0.004,0.027,101.0,103.0,100.0,13.3,1505.2,323.6,-0.7,1.8,2470.788,13.28,0.015,75.1
2022-03-22T23:16:03,42.805,6.029,-0.012,-0.007,0.044,102.0,102.0,101.0,13.4,1505.2,331.2,-0.8,1.8,2470.772,13.29,0.013,239.7
2022-03-22T23:19:03,42.805,6.029,-0.015,0.005,0.007,103.0,101.0,102.0,13.3,1505.2,325.0,-0.8,1.8,2470.775,13.29,0.015,288.4
2022-03-22T23:22:03,42.805,6.029,-0.012,0.019,0.021,101.0,101.0,100.0,13.3,1505.2,330.5,-0.8,1.8,2470.763,13.29,0.022,327.7
2022-03-22T23:25:03,42.805,6.029,0.005,0.008,0.029,101.0,102.0,100.0,13.4,1505.2,330.7,-0.8,1.8,2470.759,13.29,0.009,32.0
2022-03-22T23:28:03,42.805,6.029,-0.021,0.03,0.038,101.0,102.0,100.0,13.4,1505.2,326.3,-0.8,1.8,2470.714,13.29,0.036,325.0
2022-03-22T23:31:03,42.805,6.029,0.002,0.004,0.015,101.0,103.0,100.0,13.4,1505.2,327.9,-0.7,1.8,2470.746,13.29,0.004,26.6
2022-03-22T23:34:03,42.805,6.029,-0.001,0.013,0.046,102.0,103.0,101.0,13.4,1505.2,327.8,-0.8,1.9,2470.74,13.29,0.013,355.6
2022-03-22T23:37:03,42.805,6.029,-0.021,0.02,0.006,101.0,104.0,101.0,13.4,1505.2,324.9,-0.7,1.8,2470.782,13.29,0.028,313.6
2022-03-22T23:40:03,42.805,6.029,-0.004,0.016,0.036,103.0,100.0,101.0,13.3,1505.2,326.3,-0.8,1.8,2470.729,13.29,0.016,346.0
2022-03-22T23:43:03,42.805,6.029,-0.011,0.038,0.03,101.0,102.0,100.0,13.4,1505.2,328.1,-0.8,1.8,2470.727,13.29,0.039,343.9
2022-03-22T23:46:03,42.805,6.029,-0.012,0.01,0.05,101.0,102.0,100.0,13.4,1505.2,323.3,-0.8,1.8,2470.713,13.29,0.015,309.8
2022-03-22T23:49:03,42.805,6.029,-0.009,0.017,0.031,101.0,102.0,100.0,13.4,1505.2,332.2,-0.8,1.8,2470.703,13.29,0.019,332.1
2022-03-22T23:52:03,42.805,6.029,-0.019,0.014,-0.006,101.0,101.0,101.0,13.4,1505.2,330.0,-0.7,1.8,2470.754,13.29,0.023,306.4
2022-03-22T23:55:03,42.805,6.029,-0.025,0.018,0.025,101.0,101.0,100.0,13.4,1505.2,332.1,-0.7,1.8,2470.745,13.29,0.03,305.8
2022-03-22T23:58:03,42.805,6.029,0.001,0.025,0.047,101.0,102.0,101.0,13.3,1505.2,331.5,-0.7,1.8,2470.729,13.29,0.025,2.3
